SWA3072 KMCO-KATL

Flight info

Callsign SWA3072
Flight time N/A
Altitude 38000
Route JEEMY4 PAINN SHRKS LAIRI LARZZ JJEDI4
Aircraft B737/M-SADE2E3GIJ4RWZ/LB1D1

Departure

Time 2026-04-24 21:16
Airport Orlando International Airport (KMCO)

Arrival

Time N/A
Airport Hartsfield Jackson Atlanta International Airport (KATL)
Time Latitude Longitude Altitude Speed Heading
2026-04-24 20:33 28.43363 -81.30016 91 ft 0 kts 341°
2026-04-24 21:06 28.43362 -81.30016 91 ft 0 kts 341°
2026-04-24 21:06 28.43355 -81.30013 91 ft 2 kts 340°
2026-04-24 21:07 28.43341 -81.30008 91 ft 2 kts 341°
2026-04-24 21:07 28.43327 -81.30003 91 ft 2 kts 341°
2026-04-24 21:07 28.43313 -81.29997 91 ft 2 kts 341°
2026-04-24 21:07 28.43299 -81.29991 91 ft 1 kts 345°
2026-04-24 21:08 28.43287 -81.29994 91 ft 1 kts 50°
2026-04-24 21:08 28.43283 -81.30009 91 ft 2 kts 81°
2026-04-24 21:08 28.43280 -81.30026 91 ft 2 kts 89°
2026-04-24 21:08 28.43280 -81.30043 90 ft 2 kts 88°
2026-04-24 21:09 28.43280 -81.30060 90 ft 2 kts 91°
2026-04-24 21:09 28.43280 -81.30065 90 ft 0 kts 91°
2026-04-24 21:11 28.43280 -81.30061 90 ft 1 kts 90°
2026-04-24 21:12 28.43281 -81.30036 90 ft 4 kts 85°
2026-04-24 21:12 28.43286 -81.30006 91 ft 8 kts 77°
2026-04-24 21:12 28.43327 -81.29900 91 ft 11 kts 42°
2026-04-24 21:12 28.43412 -81.29886 91 ft 14 kts 359°
2026-04-24 21:13 28.43514 -81.29886 91 ft 13 kts
2026-04-24 21:13 28.43549 -81.29806 91 ft 13 kts 90°
2026-04-24 21:13 28.43554 -81.29670 91 ft 13 kts 88°
2026-04-24 21:13 28.43524 -81.29586 91 ft 11 kts 171°
2026-04-24 21:14 28.43506 -81.29585 91 ft 0 kts 181°
2026-04-24 21:15 28.43504 -81.29585 91 ft 6 kts 180°
2026-04-24 21:15 28.43180 -81.29585 91 ft 83 kts 180°
2026-04-24 21:16 28.42382 -81.29576 88 ft 145 kts 180°
2026-04-24 21:16 28.41315 -81.29565 574 ft 157 kts 182°
2026-04-24 21:16 28.40242 -81.29580 1340 ft 157 kts 183°
2026-04-24 21:16 28.39155 -81.29616 2011 ft 162 kts 183°
2026-04-24 21:17 28.37986 -81.29614 2608 ft 174 kts 177°
2026-04-24 21:17 28.36809 -81.29115 3065 ft 199 kts 140°
2026-04-24 21:17 28.35933 -81.27806 3509 ft 224 kts 126°
2026-04-24 21:17 28.35225 -81.26881 3844 ft 239 kts 140°
2026-04-24 21:18 28.33513 -81.25091 4623 ft 267 kts 135°
2026-04-24 21:18 28.32229 -81.23529 5470 ft 276 kts 135°
2026-04-24 21:18 28.31104 -81.21755 6420 ft 287 kts 114°
2026-04-24 21:18 28.30838 -81.19553 7579 ft 294 kts 82°
2026-04-24 21:19 28.31619 -81.17458 8711 ft 298 kts 50°
2026-04-24 21:19 28.33213 -81.15951 9862 ft 300 kts 32°
2026-04-24 21:19 28.35042 -81.14877 10832 ft 308 kts 16°
2026-04-24 21:19 28.37234 -81.14656 11302 ft 330 kts 349°
2026-04-24 21:20 28.41504 -81.16891 13049 ft 350 kts 332°
2026-04-24 21:20 28.43727 -81.18018 14063 ft 357 kts 335°
2026-04-24 21:20 28.46012 -81.19081 15069 ft 362 kts 335°
2026-04-24 21:21 28.48322 -81.20145 16050 ft 367 kts 335°
2026-04-24 21:21 28.50690 -81.21228 17010 ft 371 kts 334°
2026-04-24 21:21 28.53109 -81.22324 17943 ft 376 kts 334°
2026-04-24 21:21 28.55514 -81.23408 18833 ft 380 kts 334°
2026-04-24 21:22 28.57962 -81.24509 19706 ft 385 kts 334°
2026-04-24 21:22 28.60448 -81.25626 20554 ft 389 kts 333°
2026-04-24 21:22 28.62995 -81.26771 21380 ft 394 kts 333°
2026-04-24 21:22 28.65528 -81.27908 22165 ft 398 kts 333°
2026-04-24 21:23 28.68087 -81.29059 22922 ft 402 kts 333°
2026-04-24 21:23 28.70697 -81.30232 23661 ft 406 kts 333°
2026-04-24 21:23 28.73312 -81.31408 24371 ft 410 kts 332°
2026-04-24 21:23 28.75974 -81.32606 25064 ft 414 kts 332°
2026-04-24 21:24 28.78651 -81.33811 25733 ft 418 kts 332°
2026-04-24 21:24 28.81359 -81.35031 26364 ft 422 kts 332°
2026-04-24 21:24 28.84095 -81.36262 27036 ft 425 kts 332°
2026-04-24 21:24 28.86804 -81.37483 27653 ft 428 kts 331°
2026-04-24 21:25 28.89574 -81.38733 28252 ft 431 kts 331°
2026-04-24 21:25 28.92428 -81.39906 28829 ft 438 kts 335°
2026-04-24 21:25 28.95358 -81.40861 29376 ft 446 kts 339°
2026-04-24 21:25 28.98455 -81.41466 29926 ft 456 kts 346°
2026-04-24 21:26 29.01598 -81.41837 30508 ft 458 kts 347°
2026-04-24 21:26 29.04699 -81.42184 31713 ft 443 kts 346°
2026-04-24 21:26 29.07680 -81.42545 32541 ft 436 kts 345°
2026-04-24 21:26 29.10696 -81.42916 32991 ft 435 kts 345°
2026-04-24 21:27 29.13663 -81.43240 32975 ft 437 kts 346°
2026-04-24 21:27 29.19688 -81.43809 32972 ft 431 kts 346°
2026-04-24 21:28 29.25599 -81.44388 32972 ft 432 kts 346°
2026-04-24 21:28 29.31646 -81.44975 32974 ft 444 kts 347°
2026-04-24 21:29 29.37860 -81.45575 32977 ft 456 kts 347°
2026-04-24 21:29 29.44213 -81.46179 32981 ft 460 kts 347°
2026-04-24 21:30 29.50547 -81.46781 32981 ft 460 kts 347°
2026-04-24 21:30 29.56893 -81.47386 32981 ft 459 kts 347°
2026-04-24 21:31 29.63243 -81.47974 32981 ft 460 kts 347°
2026-04-24 21:31 29.69608 -81.48545 32981 ft 460 kts 347°
2026-04-24 21:32 29.75953 -81.49121 32981 ft 460 kts 347°
2026-04-24 21:32 29.82261 -81.49693 32981 ft 460 kts 347°
2026-04-24 21:33 29.88559 -81.50517 32981 ft 452 kts 340°
2026-04-24 21:33 29.94513 -81.52438 32979 ft 445 kts 334°
2026-04-24 21:34 30.00418 -81.54488 32971 ft 446 kts 335°
2026-04-24 21:34 30.06334 -81.56549 32962 ft 445 kts 335°
2026-04-24 21:35 30.12246 -81.58643 32956 ft 445 kts 335°
2026-04-24 21:35 30.18127 -81.60735 32954 ft 445 kts 335°
2026-04-24 21:36 30.24025 -81.62844 32955 ft 445 kts 335°
2026-04-24 21:36 30.29924 -81.64960 32957 ft 445 kts 335°
2026-04-24 21:37 30.35826 -81.67081 32959 ft 445 kts 334°
2026-04-24 21:37 30.41693 -81.69193 32959 ft 444 kts 334°
2026-04-24 21:38 30.47583 -81.71318 32953 ft 444 kts 334°
2026-04-24 21:38 30.53443 -81.73434 32947 ft 444 kts 334°
2026-04-24 21:39 30.59312 -81.75562 32946 ft 444 kts 333°
2026-04-24 21:39 30.64940 -81.78254 32949 ft 434 kts 325°
2026-04-24 21:40 30.70316 -81.81364 32948 ft 435 kts 326°
2026-04-24 21:40 30.75737 -81.84443 32945 ft 434 kts 325°
2026-04-24 21:41 30.81121 -81.87542 32945 ft 434 kts 325°
2026-04-24 21:41 30.86548 -81.90677 32943 ft 434 kts 325°
2026-04-24 21:42 30.91909 -81.93784 32942 ft 436 kts 326°
2026-04-24 21:42 30.97348 -81.96944 32942 ft 440 kts 326°
2026-04-24 21:43 31.02831 -82.00134 32941 ft 443 kts 327°
2026-04-24 21:43 31.08351 -82.03349 32939 ft 444 kts 327°
2026-04-24 21:44 31.13850 -82.06556 32937 ft 443 kts 327°
2026-04-24 21:44 31.19314 -82.09747 32935 ft 443 kts 327°
2026-04-24 21:45 31.24811 -82.12964 32939 ft 444 kts 327°
2026-04-24 21:45 31.30324 -82.16193 32943 ft 444 kts 327°
2026-04-24 21:46 31.35821 -82.19418 32945 ft 444 kts 327°
2026-04-24 21:46 31.41307 -82.22639 32943 ft 444 kts 327°
2026-04-24 21:47 31.46790 -82.25864 32940 ft 443 kts 327°
2026-04-24 21:47 31.52294 -82.29105 32938 ft 443 kts 327°
2026-04-24 21:48 31.57780 -82.32340 32936 ft 444 kts 327°
2026-04-24 21:48 31.63289 -82.35593 32935 ft 444 kts 327°
2026-04-24 21:49 31.68756 -82.38826 32935 ft 444 kts 327°
2026-04-24 21:49 31.74256 -82.42082 32935 ft 444 kts 327°